This is the latest recevied weather packets stored in our database for station/object NK7E. If no packets are shown the sender has not sent any weather packets the latest 10 day(s).
| Time | Temp. | Humidity | Pressure | Rain* | Wind** | Luminosity | Snow |
|---|---|---|---|---|---|---|---|
| 1777563316 | 21.67° C | 25% | 1011.8 hPa | 0 mm | - | 271 W/m² | - |
| 1777562716 | 21.11° C | 26% | 1011.8 hPa | 0 mm | - | 266 W/m² | - |
| 1777562116 | 21.11° C | 26% | 1011.8 hPa | 0 mm | - | 256 W/m² | - |
| 1777561516 | 20.56° C | 25% | 1012 hPa | 0 mm | - | 228 W/m² | - |
| 1777560916 | 19.44° C | 26% | 1012.1 hPa | 0 mm | - | 367 W/m² | - |
| 1777560316 | 18.89° C | 29% | 1012.3 hPa | 0 mm | - | 250 W/m² | - |
| 1777559716 | 18.33° C | 33% | 1012.3 hPa | 0 mm | - | 199 W/m² | - |
| 1777559116 | 17.78° C | 33% | 1012.1 hPa | 0 mm | - | 159 W/m² | - |
| 1777558516 | 17.78° C | 32% | 1012.2 hPa | 0 mm | - | 127 W/m² | - |
| 1777557916 | 17.22° C | 31% | 1012.2 hPa | 0 mm | - | 94 W/m² | - |
| 1777557316 | 17.22° C | 32% | 1011.9 hPa | 0 mm | - | 77 W/m² | - |
| 1777556716 | 17.78° C | 32% | 1011.9 hPa | 0 mm | - | 58 W/m² | - |
| 1777556116 | 17.78° C | 29% | 1011.9 hPa | 0 mm | - | 54 W/m² | - |
| 1777555516 | 18.33° C | 28% | 1011.8 hPa | 0 mm | - | 54 W/m² | - |
| 1777554916 | 18.33° C | 27% | 1011.6 hPa | 0 mm | - | 22 W/m² | - |
| 1777554316 | 17.78° C | 27% | 1011.6 hPa | 0 mm | - | 13 W/m² | - |
| 1777553716 | 17.78° C | 27% | 1011.6 hPa | 0 mm | - | 5 W/m² | - |
| 1777553116 | 17.78° C | 27% | 1011.5 hPa | 0 mm | - | 0 W/m² | - |
| 1777552516 | 17.78° C | 27% | 1011.5 hPa | 0 mm | - | 0 W/m² | - |
| 1777551916 | 17.78° C | 27% | 1011.5 hPa | 0 mm | - | 0 W/m² | - |
| 1777551316 | 17.78° C | 27% | 1011.2 hPa | 0 mm | - | 0 W/m² | - |
| 1777550716 | 17.78° C | 27% | 1011.3 hPa | 0 mm | - | 0 W/m² | - |
| 1777550116 | 17.78° C | 27% | 1011.3 hPa | 0 mm | - | 0 W/m² | - |
| 1777549516 | 17.78° C | 27% | 1011.4 hPa | 0 mm | - | 0 W/m² | - |
| 1777548921 | 18.33° C | 27% | 1011.5 hPa | 0 mm | - | 0 W/m² | - |
* Rain latest hour (hover to see other rain measurements)
** Current wind speed in m/s (hover to see current wind gust speed)